ONEWEB-0044 (45150 NORAD) Tracking and Keplerian Element Data

This shows tracking and keplerian element data for the satellite.

Feedback or suggestion? Click here.




ElementValue
Catalog45150
NameONEWEB-0044
Epoch Orbit921
Epoch Day93.13004228
Epoch Year2020
RAAN145.4947
Inclination87.5303
Eccentricity0.0021433
Argument of Perigee101.0025
Mean Anonmoly259.3622
Mean Motion15.01820535
Decay Rate-0.0021185
L11 45150U 20008V 20093.13004228 -.00211850 00000-0 -16671-1 0 9990
L22 45150 87.5303 145.4947 0021433 101.0025 259.3622 15.01820535 9210

Live tracking and technical data element details for ONEWEB-0044 (NORAD 45150). ONEWEB-0044 can be tracked NOW for your location showing map with azimuth and elevation plus other details from your city location.

Track the satellite on the map from your city or location and see movement details for azimuth, elevation, latitude, longitude, range, height, and movement on the map or in text.







IsCatalogInMostPopularTable: catalog: 45150, numindb: 12
Update: records affected: 1



GetName: 45150 ONEWEB-0044

Hit Count: updated at: Sun, 05 Apr 2020 20:24:25 GMT